COSMOS 2251 DEB, 35443

Orbit data source: Space-Track

COSMOS 2251 DEB, 35443 is space debris in LEO originally from a launch on Wed, 16 Jun 1993 UTC launched from the Plesetsk Missile And Space Complex (PKMTR). The debris from Iridium 33, an American commercial communications satellite, has been tracked extensively since its accidental collision with the defunct Russian satellite Cosmos 2251 in 2009. This event, occurring at high speed in low Earth orbit (LEO), generated thousands of pieces of space debris, significantly increasing the risk of further collisions. The Iridium 33 debris cloud has impacted space traffic management and orbital debris mitigation strategies, making it a subject of ongoing study in space situational awareness.

Loading next visibility...
Identifier
35443, 1993-036AKM
Orbit
LEO
Country
Flag of CISCIS
Related business
Manufacturer
Unknown
Mission
Spacecraft
Bus & Motor
Unknown
Mass
Unknown
Launch date (UTC)
1993-06-16 (33 years ago)
Launch vehicle
Unknown
Launch site
Plesetsk Missile And Space Complex (PKMTR)
Object type
Payload
Rocket body
Debris
Shape & HBR
Unknown shape, 0.1 m
Radar Cross Section
Small (<0.1 m²)

Expand to show TLE details & history
Last TLE update: 4 days ago

TLE from 4 days ago
0 COSMOS 2251 DEB
1 35443U 93036AKM 26203.47920595  .00152452  00000-0  48290-2 0  9998
2 35443  73.9648 230.7526 0048275 306.4302  53.2453 15.30914924902299
Epoch: 2026-07-22T11:30Z
TLE epoch observation values (Epoch: 2026-07-22T11:30:03.394Z)
Latitude
-0.00008°
Longitude
118.00448°
Altitude
456.11 km
Speed
7.65 km/s
True Right ascension
15h 23m 00s
True Declination
0° 00' 00"
Sunlit
Object was in daylight at epoch
Visualization orbit readout
Latitude
Unknown
Longitude
Unknown
Altitude
Unknown
Speed
Unknown
Apparent Right ascension
Unknown
Apparent Declination
Unknown
Sunlit
N/A
Visualization observer readout
Local Sidereal Time
15:20:36
Azimuth
Unknown
Elevation
Unknown
Doppler factor
Unknown
Orbital elements
Apogee altitude
503.67 km
Perigee altitude
437.545 km
Semi-major axis
6,848.745 km
Eccentricity
0.00483
Inclination
73.9648°
RAAN
230.7526°
Arg. of periapsis
306.4302°
True anomaly
53.69012°
Mean anomaly
53.2453°
Eccentric anomaly
53.46755°
Mean motion
3.82936 °/min
Orbital period
94.01 mins
BSTAR
0.004829

Documentation

Showing up to 5 results
|